User: anonymous   Login
Location: Hamburg
(53.5500°N, 10.0000°E)
Time: 21:03:36
(UTC+01:00)
Language:

Courier 1B - Orbit

View from above orbital plane
View from above orbital plane
View from above satellite
View from above satellite

Ground track
Ground track

The orbit data is extracted from the following two-line orbital elements,

1    58U 60013A   17017.88700764 +.00000106 +00000-0 +28302-4 0  9995
2    58 028.3284 298.7194 0165053 188.9180 170.8412 13.46307033770509
Epoch (UTC): 17 January 2017 21:17:17
Eccentricity: 0.0165053
inclination: 28.3284°
perigee height: 962 km
apogee height: 1209 km
right ascension of ascending node: 298.7194°
argument of perigee: 188.9180°
revolutions per day: 13.46307033
mean anomaly at epoch: 170.8412°
orbit number at epoch: 77050

The dashed part of the orbit path shows where the satellite is in the earth's shadow,  

DLR